Watertown, SD

5:06 AM CDT on October 01, 2016 (GMT -0500)
Watertown Municipal

Weather History for KATY - January, 2013

Change the Weather History Date:

Thursday, January 24, 2013

  Actual Average Record
Temperature  
Mean Temperature 0 °F 13 °F  
Max Temperature 10 °F 23 °F 65 °F (1981)
Min Temperature -11 °F 3 °F -36 °F (1904)
Degree Days  
Heating Degree Days 65 52  
Month to date heating degree days 1251 1262  
Since 1 July heating degree days 4608 4721  
Cooling Degree Days 0 0  
Month to date cooling degree days 0 0  
Year to date cooling degree days 0 0  
Moisture  
Dew Point -7 °F    
Average Humidity 72    
Maximum Humidity 80    
Minimum Humidity 64    
Precipitation  
Precipitation 0.00 in 0.01 in 0.14 in (1969)
Month to date precipitation 0.15 0.40  
Year to date precipitation 0.15 0.40  
Snow  
Snow 0.00 in - - ()
Month to date snowfall 0.3  
Since 1 July snowfall 11.0  
Snow Depth 5.00 in    
Sea Level Pressure  
Sea Level Pressure 30.40 in    
Wind  
Wind Speed 14 mph (SSE)    
Max Wind Speed 25 mph    
Max Gust Speed 30 mph    
Visibility 10 miles    
Events      
T = Trace of Precipitation, MM = Missing Value Source: NWS Daily Summary

Daily Weather History Graph

Daily Weather History Graph

Search for Another Location

Airport or City:

Trip Planner

Search our weather history database for the weather conditions in past years. The results will help you decide how hot, cold, wet, or windy it might be!

Date:

Astronomy

Jan. 24, 2013 Rise Set
Actual Time 7:56 AM CST 5:25 PM CST
Civil Twilight 7:24 AM CST 5:57 PM CST
Nautical Twilight 6:48 AM CST 6:33 PM CST
Astronomical Twilight 6:13 AM CST 7:08 PM CST
Moon 3:27 PM CST (1/24) 5:56 AM CST (1/24)
Length of Visible Light 10h 33m
Length of Day
9h 29m
Waxing Gibbous, 94% of the Moon is Illuminated
Jan 24
Waxing Gibbous
Jan 26
Full
Feb 3
Last Quarter
Feb 10
New
Feb 17
First Quarter

Hourly Weather History & Observations

Time (CST) Temp. Windchill Dew Point Humidity Pressure Visibility Wind Dir Wind Speed Gust Speed Precip Events Conditions
12:53 AM -11.0 °F -27.6 °F -18.9 °F 68% 30.66 in 10.0 mi NE 8.1 mph - N/A   Scattered Clouds
1:53 AM -11.0 °F -28.8 °F -18.0 °F 71% 30.66 in 10.0 mi ENE 9.2 mph - N/A   Mostly Cloudy
2:53 AM -9.9 °F -19.2 °F -18.0 °F 68% 30.67 in 10.0 mi ESE 3.5 mph - N/A   Mostly Cloudy
3:53 AM -9.0 °F -25.2 °F -17.0 °F 68% 30.65 in 10.0 mi SE 8.1 mph - N/A   Mostly Cloudy
4:53 AM -9.0 °F -25.2 °F -16.1 °F 71% 30.62 in 10.0 mi SE 8.1 mph - N/A   Scattered Clouds
5:53 AM -8.0 °F -25.0 °F -15.0 °F 71% 30.62 in 10.0 mi SSE 9.2 mph - N/A   Clear
6:53 AM -8.0 °F -22.5 °F -15.0 °F 71% 30.59 in 10.0 mi SE 6.9 mph - N/A   Clear
7:53 AM -7.1 °F -26.8 °F -14.1 °F 72% 30.57 in 10.0 mi SSE 12.7 mph 19.6 mph N/A   Clear
8:53 AM -6.0 °F -24.6 °F -11.9 °F 75% 30.54 in 10.0 mi SSE 11.5 mph - N/A   Clear
9:53 AM -4.0 °F -24.5 °F -11.0 °F 72% 30.52 in 10.0 mi SSE 15.0 mph 25.3 mph N/A   Clear
10:53 AM -2.0 °F -25.5 °F -9.0 °F 72% 30.49 in 10.0 mi SSE 21.9 mph - N/A   Clear
11:53 AM -0.0 °F -21.8 °F -8.0 °F 69% 30.45 in 10.0 mi SSE 19.6 mph - N/A   Clear
12:53 PM 1.9 °F -20.2 °F -6.0 °F 69% 30.37 in 10.0 mi SSE 21.9 mph 27.6 mph N/A   Clear
1:53 PM 3.9 °F -16.6 °F -5.1 °F 66% 30.31 in 10.0 mi SSE 19.6 mph 27.6 mph N/A   Clear
2:53 PM 6.1 °F -12.2 °F -2.9 °F 67% 30.29 in 10.0 mi SSE 16.1 mph 25.3 mph N/A   Clear
3:53 PM 6.1 °F -12.2 °F -2.0 °F 69% 30.25 in 10.0 mi SSE 16.1 mph 21.9 mph N/A   Clear
4:53 PM 7.0 °F -11.6 °F -0.9 °F 70% 30.21 in 10.0 mi SSE 17.3 mph 25.3 mph N/A   Clear
5:53 PM 8.1 °F -10.7 °F -0.0 °F 70% 30.22 in 10.0 mi South 18.4 mph - N/A   Clear
6:53 PM 8.1 °F -11.2 °F 1.0 °F 73% 30.18 in 10.0 mi South 19.6 mph - N/A   Overcast
7:53 PM 9.0 °F -7.9 °F 1.9 °F 73% 30.17 in 10.0 mi South 15.0 mph 21.9 mph N/A   Overcast
8:53 PM 10.0 °F -7.1 °F 1.9 °F 70% 30.18 in 10.0 mi SSW 16.1 mph - N/A   Overcast
9:53 PM 10.0 °F -7.6 °F 3.0 °F 73% 30.14 in 10.0 mi SSW 17.3 mph 23.0 mph N/A   Mostly Cloudy
10:53 PM 9.0 °F -8.5 °F 3.0 °F 77% 30.12 in 10.0 mi SSW 16.1 mph - N/A   Scattered Clouds
11:53 PM 9.0 °F -8.5 °F 3.0 °F 77% 30.12 in 10.0 mi SSW 16.1 mph - N/A   Partly Cloudy